VINASAT-2

Last updated on Jan. 25, 2020, 4:43 a.m. UTC

1 38332U 12023B   20024.46443552 -.00000337  00000-0  00000+0 0  9991
2 38332   0.0526 273.0000 0001883  45.6655 103.5967  1.00273138 28193
UTC
Height (km)
Latitude
Longitude
Inclination
Orbital Period
UTC large
Height (km)
Speed (km/s)
/
Latitude / Longitude
Inclination (degrees)
Orbital Period (minutes)
Azimuth
Elevation
Range (km)
Doppler Factor
iOS Compass Heading
iOS Angle

Next 30 passes for location: Hong Kong

Rise time Rise Azimuth (degrees) Set time Set Azimuth (degrees) Duration Max altitude (degrees)

No matching passes for this satellites